CAPE
1090 856 764 680 550 285 125 187 168 173 158 105 34 35 139 29 14 47 150 46 108 18 10 9 11 12 16 23 49 128 158 148 47
842 709 721 611 431 131 75 63 58 39 36 27 6 69 73 13 14 61 20 93 67 8 10 11 9 10 13 50 66 53 72 89 71
738 624 527 413 44 4 0 0 0 2 5 0 0 0 42 29 26 29 22 170 27 17 17 10 14 12 40 78 61 48 52 52 53
592 522 468 400 203 96 12 0 0 0 0 0 0 0 43 39 41 30 14 71 29 23 16 11 19 33 75 63 43 27 14 34 37
411 311 422 356 200 151 75 3 0 0 0 0 0 0 27 29 44 32 16 88 47 35 14 10 15 31 70 39 31 12 14 17 15
115 131 214 173 193 213 101 25 0 0 0 0 0 0 0 10 28 24 83 79 30 8 9 8 21 61 66 48 26 13 14 23 16
43 42 64 103 89 137 112 31 0 0 0 0 0 0 0 2 15 27 96 84 27 13 5 7 25 68 70 47 27 8 12 13 13
0 0 24 22 24 32 39 6 0 0 0 0 0 0 0 0 12 36 87 104 35 11 3 9 61 77 74 46 24 9 10 11 16
0 0 13 16 3 1 0 0 0 0 0 0 0 0 0 0 2 33 57 106 46 4 4 9 65 71 53 41 18 7 8 18 10
0 0 0 1 0 0 0 0 0 0 0 0 0 0 0 0 0 6 42 60 77 17 6 52 82 75 55 27 8 9 11 14 13
0 0 0 3 3 0 0 0 0 0 0 0 0 17 14 10 7 5 20 38 83 74 19 83 101 75 43 21 9 9 11 13 13
0 0 0 0 0 0 0 0 0 0 0 0 0 27 34 24 17 8 0 25 49 81 58 82 91 71 40 15 11 7 10 10 10
0 0 0 0 2 0 0 0 0 0 0 0 1 19 39 14 14 25 30 19 11 42 78 136 104 74 48 23 14 5 8 10 8
0 0 0 0 0 0 0 0 0 0 0 0 0 18 33 14 22 8 27 11 6 5 33 91 91 78 51 26 7 8 8 8 6
0 0 0 0 0 0 0 0 0 0 0 0 0 1 6 7 15 9 2 2 0 0 2 26 20 21 62 38 6 5 6 5 5
0 0 0 0 0 0 0 0 0 0 2 0 1 0 0 0 2 23 0 0 0 0 0 4 0 10 44 65 24 1 4 5 5
0 0 0 0 0 0 0 0 0 0 0 0 0 14 1 2 0 4 12 3 1 0 1 0 0 0 5 19 38 8 4 4 6
0 0 0 0 0 0 0 0 0 0 0 0 0 0 0 0 0 0 1 3 0 0 0 0 0 0 0 11 3 0 10 4 10
0 0 0 0 0 0 0 0 0 0 0 0 0 0 0 0 0 0 0 1 12 0 0 0 0 0 0 0 0 0 1 37 18
0 0 0 0 0 0 0 0 0 0 0 0 0 0 0 0 0 0 0 0 0 3 0 0 0 0 0 1 3 0 11 19 41
CIN
-0 -0 -0 -4 -21 -113 -213 -168 -182 -203 -217 -258 -37 -46 -216 -80 -64 -302 -177 -230 -176 -95 -0 -0 -0 -0 -0 -0 -0 -167 -155 -138 -0
-0 -1 -0 -2 -45 -188 -237 -264 -208 -25 -35 -38 -38 -121 -245 -89 -81 -278 -25 -214 -222 -0 -0 -0 -0 -0 -0 -0 -0 -0 -176 -208 -228
-0 -1 -3 -17 -243 -155 -0 -0 -0 -8 -24 -0 -0 -0 -55 -89 -70 -43 -20 -200 -100 -1 -0 -0 -0 -0 -0 -82 -0 -0 -0 -0 -0
-1 -1 -3 -15 -133 -218 -86 -0 -0 -0 -0 -0 -0 -0 -68 -68 -43 -28 -18 -60 -4 -0 -0 -0 -0 -0 -0 -0 -0 -0 -0 -0 -0
-7 -32 -9 -18 -116 -162 -250 -0 -0 -0 -0 -0 -0 -0 -58 -82 -51 -25 -11 -240 -1 -0 -0 -0 -0 -0 -0 -1 -0 -0 -0 -0 -0
-104 -104 -81 -128 -122 -103 -228 -2 -0 -0 -0 -0 -0 -0 -0 -82 -73 -42 -215 -186 -0 -0 -0 -0 -0 -0 -0 -0 -0 -0 -0 -0 -0
-199 -209 -215 -220 -267 -196 -234 -5 -0 -0 -0 -0 -0 -0 -0 -37 -79 -36 -254 -0 -0 -0 -0 -0 -0 -0 -0 -0 -0 -0 -0 -0 -0
-0 -0 -36 -31 -22 -12 -23 -3 -0 -0 -0 -0 -0 -0 -0 -0 -69 -33 -15 -0 -0 -3 -0 -0 -0 -0 -0 -0 -2 -0 -0 -0 -0
-0 -0 -80 -59 -92 -38 -0 -0 -0 -0 -0 -0 -0 -0 -0 -0 -22 -41 -18 -287 -1 -0 -0 -0 -0 -0 -1 -1 -8 -0 -0 -0 -0
-0 -0 -0 -68 -0 -0 -0 -0 -0 -0 -0 -0 -0 -0 -0 -50 -13 -99 -14 -10 -0 -8 -0 -0 -0 -0 -0 -0 -1 -0 -0 -0 -0
-0 -0 -0 -67 -78 -0 -0 -0 -0 -0 -0 -0 -0 -66 -100 -131 -134 -106 -32 -14 -4 -2 -17 -0 -0 -0 -4 -1 -0 -0 -0 -0 -0
-0 -0 -0 -0 -0 -0 -0 -0 -0 -0 -0 -0 -0 -66 -87 -97 -86 -37 -0 -25 -5 -4 -0 -0 -0 -0 -12 -0 -0 -0 -0 -0 -0
-0 -0 -0 -0 -80 -0 -0 -0 -0 -0 -0 -0 -10 -78 -71 -76 -67 -64 -49 -52 -37 -13 -3 -1 -0 -0 -14 -6 -0 -0 -0 -0 -0
-0 -0 -0 -0 -0 -0 -0 -0 -0 -0 -0 -0 -37 -94 -67 -69 -35 -71 -57 -35 -55 -37 -23 -5 -2 -2 -3 -12 -0 -0 -0 -0 -0
-0 -0 -0 -0 -0 -0 -0 -0 -0 -0 -0 -0 -115 -73 -71 -52 -39 -55 -28 -47 -0 -0 -15 -27 -17 -7 -2 -23 -6 -0 -0 -0 -0
-0 -0 -0 -0 -0 -0 -0 -0 -0 -0 -116 -0 -109 -0 -0 -0 -54 -44 -0 -0 -0 -0 -0 -95 -0 -30 -10 -5 -20 -0 -0 -0 -0
-0 -0 -0 -0 -0 -0 -0 -0 -0 -0 -81 -0 -0 -19 -6 -68 -0 -39 -26 -21 -76 -0 -87 -0 -0 -0 -61 -40 -8 -2 -0 -0 -0
-0 -0 -0 -0 -0 -0 -0 -0 -0 -0 -0 -0 -0 -0 -0 -0 -0 -0 -22 -37 -16 -0 -0 -0 -0 -0 -0 -58 -39 -0 -15 -0 -0
-0 -0 -0 -0 -0 -0 -0 -0 -0 -0 -0 -0 -0 -0 -0 -0 -0 -0 -0 -55 -45 -5 -0 -0 -0 -0 -0 -0 -45 -0 -59 -5 -25
-0 -0 -0 -0 -0 -0 -0 -0 -0 -0 -0 -0 -0 -0 -0 -0 -0 -0 -1 -0 -0 -66 -0 -0 -0 -0 -0 -25 -143 -0 -78 -17 -5
Wind_Speed
14 16 17 16 16 15 14 13 13 11 11 11 10 9 12 14 7 8 9 6 17 18 18 18 18 17 16 17 18 23 22 21 21
16 17 16 16 15 15 14 12 10 9 10 11 10 12 11 9 7 9 7 10 17 17 17 18 17 16 17 16 22 21 22 22 22
17 18 17 16 16 15 14 12 9 8 9 9 9 10 8 9 9 7 6 14 16 17 17 17 17 18 16 18 22 20 20 21 20
18 17 17 15 14 13 13 12 10 7 8 7 7 8 8 8 8 8 4 14 16 16 17 16 16 15 16 22 20 20 18 19 19
15 14 15 16 14 14 13 12 10 7 4 6 4 7 7 6 9 6 4 15 15 17 16 15 15 15 19 21 19 18 19 17 18
12 11 13 14 13 14 14 13 10 7 4 4 3 6 2 5 6 5 10 14 15 15 15 15 16 13 20 20 18 17 17 17 18
7 9 13 13 11 14 15 13 10 7 2 1 0 2 3 4 5 5 13 15 14 15 15 14 13 15 20 20 18 16 16 17 16
4 4 6 6 8 4 7 6 4 5 4 3 2 2 3 3 3 8 13 15 15 15 15 15 14 20 20 18 18 15 15 16 15
5 4 6 6 4 5 5 4 5 4 5 6 4 4 3 4 3 6 12 13 15 15 15 14 15 19 20 16 18 14 15 15 14
7 6 6 6 4 5 5 5 5 5 6 4 4 3 6 6 4 3 9 13 15 16 16 14 17 19 18 15 16 14 15 15 14
7 7 7 8 7 5 6 5 5 5 5 4 4 4 7 6 6 4 6 13 14 14 16 16 19 19 19 15 15 14 14 14 14
9 7 6 6 7 8 5 4 4 4 3 5 5 5 7 5 6 5 4 7 11 12 16 17 19 19 20 14 14 14 14 13 14
7 7 7 6 5 8 5 4 4 5 4 3 3 5 5 6 5 5 6 4 3 6 11 14 19 19 19 16 15 14 14 14 13
9 6 7 8 5 4 5 2 4 4 3 4 3 4 4 6 5 4 7 6 4 3 7 12 14 14 16 18 16 15 14 13 13
9 7 9 8 6 5 4 5 2 4 5 5 5 3 4 3 6 6 5 5 5 5 5 6 7 13 15 18 16 16 15 14 13
11 9 10 8 9 8 8 5 6 2 5 4 3 4 4 3 3 4 4 4 4 5 6 4 5 7 13 15 17 17 16 15 14
12 12 10 11 8 9 8 9 4 3 6 4 4 2 2 1 1 4 5 7 4 6 7 7 5 4 5 7 13 15 16 16 15
15 15 12 11 10 10 10 11 11 4 3 11 6 3 5 3 1 2 4 5 5 5 6 8 7 6 5 8 9 12 14 16 16
13 15 14 13 9 11 10 10 10 6 8 1 2 2 5 4 3 2 3 4 5 6 4 6 9 8 5 8 10 14 13 15 17
13 13 15 15 12 12 11 10 12 10 9 7 4 2 1 2 4 5 5 1 3 4 5 5 5 8 8 8 9 15 18 20 19
Wind_Direction
135 127 124 118 116 116 114 110 110 105 90 83 52 25 81 97 104 102 107 95 100 100 99 96 93 94 99 97 95 87 87 86 90
135 131 126 123 121 122 121 116 111 103 93 82 59 53 92 104 96 99 95 106 107 102 100 95 96 100 104 108 93 87 84 87 86
141 135 132 128 129 130 128 126 121 108 93 78 59 52 90 97 102 100 95 108 106 106 105 101 104 111 108 107 98 93 89 89 86
143 138 137 136 136 134 132 130 127 119 104 92 70 54 81 104 108 106 105 108 109 112 114 105 109 107 112 100 96 93 95 94 92
138 137 141 139 140 142 138 135 134 126 107 101 83 62 85 109 109 108 118 118 119 116 113 110 116 113 107 101 98 101 96 97 99
144 147 144 143 145 148 141 136 132 131 133 121 101 74 83 106 115 119 126 118 122 120 117 121 122 118 115 108 103 103 103 100 102
155 154 149 150 148 146 143 140 146 139 151 236 42 124 99 116 114 135 140 130 124 125 124 130 130 125 116 112 109 106 107 105 104
149 154 156 148 136 142 137 147 162 165 164 192 196 191 136 140 132 144 138 136 129 131 130 135 126 128 115 112 109 112 111 110 109
155 155 152 147 149 146 151 165 181 206 206 180 210 255 142 146 140 154 150 139 138 139 138 143 135 127 116 119 111 117 118 116 111
161 161 147 153 157 158 174 182 186 199 225 217 190 153 157 142 135 149 158 139 145 145 147 144 145 129 123 120 122 126 126 123 119
161 163 172 169 167 172 174 191 180 205 175 192 139 138 114 122 130 148 146 146 148 155 156 149 144 133 126 129 131 133 131 130 125
163 167 184 176 164 174 175 193 176 175 148 151 146 123 116 127 140 136 145 154 154 163 164 156 154 143 131 141 142 143 138 135 134
162 170 179 169 150 174 163 169 175 146 167 145 176 120 117 127 135 141 142 133 148 163 174 159 160 153 142 147 148 150 144 148 143
170 169 178 154 157 150 157 150 144 152 157 135 120 132 128 133 153 147 146 144 156 148 165 153 157 155 153 150 153 155 154 153 153
169 160 171 164 159 160 163 143 164 151 154 124 90 93 127 121 161 157 147 161 158 153 137 155 167 161 160 156 158 162 163 162 163
165 168 167 170 175 174 173 153 157 121 137 116 66 52 49 114 170 156 156 165 165 151 146 144 176 171 163 165 164 168 170 172 171
167 168 175 175 176 176 182 178 134 130 172 125 108 120 353 32 133 171 186 189 163 164 161 154 176 170 158 166 168 171 177 180 179
178 176 173 179 180 186 186 183 171 143 216 157 144 138 207 130 194 212 182 171 172 167 167 172 180 181 166 169 171 173 185 186 186
181 177 175 176 184 191 190 189 170 139 181 137 134 142 145 162 168 255 223 195 182 172 177 175 188 179 181 178 176 179 187 197 196
189 178 181 182 179 188 190 186 179 178 179 182 139 143 172 142 140 173 182 218 233 184 184 184 176 181 183 188 190 189 187 201 206